Regional Weather Roundup
Issued by NWS Northern Indiana

Home | Current Version | Previous Version | Text Only | Print | Product List | Glossary On
Versions: 1 2 3 4 5 6 7 8 9 10 11 12 13 14 15 16 17 18 19 20 21 22 23 24 25 26 27 28 29 30 31 32 33 34 35 36 37 38 39 40 41 42 43 44 45 46 47 48 49 50
000
ASUS43 KIWX 010710
RWRIWX

KIWX WEATHER ROUNDUP
NATIONAL WEATHER SERVICE NORTHERN INDIANA
300 AM EDT SAT NOV 01 2014

NOTE: "FAIR" INDICATES FEW OR NO CLOUDS BELOW 12,000 FEET WITH NO
SIGNIFICANT WEATHER AND/OR OBSTRUCTIONS TO VISIBILITY.

* THESE STATIONS ARE NOT UNDER NWS QUALITY CONTROL. THEY ALSO MAY NOT
  REPORT WEATHER SUCH AS PRECIPITATION OR FOG.

INZ001>027-010800-
NORTHERN INDIANA

CITY           SKY/WX    TMP DP  RH WIND       PRES   REMARKS
GARY*            N/A    N/A N/A N/A MISG        N/A
VALPARAISO     CLOUDY    34  26  72 VRB6      30.28R WCI  29
MICHIGAN CITY* CLOUDY    36  27  69 NE12G22   30.30R
LAPORTE*       PTCLDY    33  24  71 NE12G20   30.29R WCI  24
KNOX*          CLEAR     31  22  68 NE20G25   30.27R WCI  19
SOUTH BEND     CLEAR     31  20  63 N16       30.29R WCI  20
GOSHEN         CLOUDY    33  22  63 N15G25    30.24R WCI  23
MONTICELLO*    CLEAR     31  24  75 N8        30.26R WCI  23
LOGANSPORT*    CLEAR     32  21  64 N16G25    30.25R WCI  21
ROCHESTER*     MOCLDY    32  23  69 N12G24    30.25R WCI  23
WARSAW*        CLOUDY    32  23  69 N13G21    30.23R WCI  22
ANGOLA*          N/A     30  16  55 N12       30.19R WCI  21
FORT WAYNE     FLURRIES  32  25  75 N22G29    30.18R WCI  19
HUNTINGTON*    CLOUDY   N/A N/A N/A N15G23    30.19R
PERU/GRISSOM   PTCLDY    31  24  77 N16       30.22R WCI  20
MARION*        MOCLDY    32  24  73 N15G21    30.19R WCI  22

$$
INZ028>050-010800-
CENTRAL INDIANA

CITY           SKY/WX    TMP DP  RH WIND       PRES   REMARKS
LAFAYETTE      CLOUDY    32  24  72 N10G17    30.27R WCI  24
KOKOMO*        PTCLDY    30  21  69 N15G22    30.22R WCI  19
MUNCIE*        CLOUDY    33  25  72 N28       30.14R WCI  20
INDIANAPOLIS   PTCLDY    31  23  72 N18       30.19R WCI  19

$$
MIZ043>046-050>051-056>058-064>065-071>073-077>080-010800-
SOUTHWEST LOWER MICHIGAN

CITY           SKY/WX    TMP DP  RH WIND       PRES   REMARKS
BATTLE CREEK   CLOUDY    32  21  64 N20G26    30.25R WCI  20
BENTON HARBOR  PTCLDY    31  19  61 NE12G20   30.31R WCI  22
COLDWATER*     CLOUDY    33  24  69 N17G24    30.21R WCI  22
HILLSDALE*     CLOUDY    31  24  74 N18G28    30.16R WCI  20
HOLLAND        CLEAR     31  19  61 N12G22    30.33R WCI  22
GRAND RAPIDS   CLOUDY    32  19  58 N14       30.30R WCI  22
KALAMAZOO      CLOUDY    32  21  64 N17G25    30.26S WCI  21
STURGIS*       CLOUDY    32  23  69 N15G23    30.22S WCI  22
THREE RIVERS*  CLOUDY    33  23  66 N10       30.25S WCI  25

$$
OHZ001>008-015>018-024>025-010800-
NORTHWEST OHIO

CITY           SKY/WX    TMP DP  RH WIND       PRES   REMARKS
WAUSEON*       CLOUDY    34  28  80 N15G26    30.13R WCI  24
DEFIANCE       CLOUDY    34  26  72 N18G31    30.15R WCI  23
FINDLAY        LGT SNOW  35  32  88 N17       30.06R FOG     WCI  25
TOLEDO EXPRESS CLOUDY    34  30  85 N16G26    30.11R WCI  24
TOLEDO METCALF CLOUDY    37  30  75 N18G35    30.10R
LIMA           LGT SNOW  33  32  96 N21G26    30.07R WCI  21

$$
AND FOR LAKE MICHIGAN COASTAL AND OPEN LAKE BUOY OBSERVATIONS

STATION/POSITION TEMP    WIND        PRES    VSBY  WAVE
                 AIR SEA DIR/SP/G                  HT/PER
                 (F)     (DEG/KT/KT) (MB)    (MI)  (FT/S)
CALUMET HARBOR    40     350/ 21/ 29 1025.5R
MICHIGAN CITY     39     350/ 30/ 36   N/A
SAINT JOSEPH      35      10/ 18/ 25 1026.1R
SOUTH LAKE BUOY   38 48   10/ 23/ 29 1027.1R        10/ 9

$$
&&



USA.gov is the U.S. government's official web portal to all federal, state and local government web resources and services.